| time (UTC) | temp C | wind direction | speed KPH | gust KPH | rain 1hr cm | rain 24hr cm | rain mn cm | humidity % | barometer mb |
| 20260507060505 | 6 | 273 | 6.4 | 11.3 | 0.00 | 0.00 | 0.00 | 66 | 1013.2 |
| 20260507060005 | 6 | 264 | 6.4 | 9.7 | 0.00 | 0.00 | 0.00 | 66 | 1013.2 |
| 20260507055505 | 6 | 272 | 6.4 | 11.3 | 0.00 | 0.00 | 0.00 | 67 | 1013.2 |
| 20260507055006 | 6 | 282 | 3.2 | 11.3 | 0.00 | 0.00 | 0.00 | 67 | 1013.1 |
| 20260507054505 | 6 | 290 | 3.2 | 11.3 | 0.00 | 0.00 | 0.00 | 68 | 1013.1 |
| 20260507054005 | 6 | 271 | 1.6 | 8.0 | 0.00 | 0.00 | 0.00 | 68 | 1013.2 |
| 20260507053505 | 6 | 236 | 3.2 | 9.7 | 0.00 | 0.00 | 0.00 | 68 | 1013.2 |
| 20260507053005 | 7 | 246 | 3.2 | 8.0 | 0.00 | 0.00 | 0.00 | 68 | 1013.2 |
| 20260507052505 | 7 | 271 | 1.6 | 4.8 | 0.00 | 0.00 | 0.00 | 68 | 1013.2 |
| 20260507052005 | 7 | 251 | 1.6 | 4.8 | 0.00 | 0.00 | 0.00 | 68 | 1013.2 |
| 20260507051005 | 7 | 263 | 1.6 | 4.8 | 0.00 | 0.00 | 0.00 | 68 | 1013.2 |
| 20260507050505 | 7 | 259 | 0.0 | 3.2 | 0.00 | 0.00 | 0.00 | 68 | 1013.2 |
| 20260507045505 | 7 | 292 | 0.0 | 3.2 | 0.00 | 0.00 | 0.00 | 67 | 1013.1 |
| 20260507045006 | 7 | 294 | 0.0 | 8.0 | 0.00 | 0.00 | 0.00 | 67 | 1013.1 |
| 20260507044005 | 7 | 259 | 1.6 | 4.8 | 0.00 | 0.00 | 0.00 | 66 | 1013.0 |
| 20260507043505 | 7 | 252 | 1.6 | 8.0 | 0.00 | 0.00 | 0.00 | 66 | 1013.0 |
| 20260507043005 | 7 | 282 | 1.6 | 4.8 | 0.00 | 0.00 | 0.00 | 66 | 1013.0 |
| 20260507042505 | 7 | 282 | 4.8 | 9.7 | 0.00 | 0.00 | 0.00 | 66 | 1012.9 |
| 20260507042005 | 7 | 271 | 1.6 | 9.7 | 0.00 | 0.00 | 0.00 | 66 | 1012.9 |
| 20260507041505 | 7 | 274 | 3.2 | 16.1 | 0.00 | 0.00 | 0.00 | 67 | 1012.9 |
| 20260507041006 | 7 | 239 | 3.2 | 11.3 | 0.00 | 0.00 | 0.00 | 68 | 1012.9 |
| 20260507040005 | 7 | 260 | 1.6 | 11.3 | 0.00 | 0.00 | 0.00 | 69 | 1012.9 |
| 20260507035505 | 7 | 283 | 1.6 | 8.0 | 0.00 | 0.00 | 0.00 | 72 | 1012.9 |
| 20260507035005 | 7 | 309 | 0.0 | 1.6 | 0.00 | 0.00 | 0.00 | 73 | 1012.9 |
| 20260507034505 | 7 | 309 | 0.0 | 3.2 | 0.00 | 0.00 | 0.00 | 72 | 1012.9 |
| 20260507034005 | 7 | 311 | 0.0 | 0.0 | 0.00 | 0.00 | 0.00 | 72 | 1012.8 |
| 20260507033505 | 7 | 311 | 0.0 | 0.0 | 0.00 | 0.00 | 0.00 | 72 | 1012.8 |
| 20260507033004 | 7 | 311 | 0.0 | 0.0 | 0.00 | 0.00 | 0.00 | 72 | 1012.9 |
| 20260507032505 | 7 | 311 | 0.0 | 0.0 | 0.00 | 0.00 | 0.00 | 72 | 1012.9 |
| 20260507032005 | 8 | 311 | 0.0 | 1.6 | 0.00 | 0.00 | 0.00 | 72 | 1012.9 |
| 20260507031505 | 8 | 311 | 0.0 | 0.0 | 0.00 | 0.00 | 0.00 | 71 | 1012.9 |
| 20260507031005 | 8 | 311 | 0.0 | 0.0 | 0.00 | 0.00 | 0.00 | 70 | 1012.9 |
| 20260507030505 | 8 | 311 | 0.0 | 3.2 | 0.00 | 0.00 | 0.00 | 70 | 1012.9 |
| 20260507030005 | 8 | 312 | 0.0 | 3.2 | 0.00 | 0.00 | 0.00 | 70 | 1012.9 |
| 20260507025504 | 8 | 312 | 0.0 | 0.0 | 0.00 | 0.00 | 0.00 | 69 | 1012.9 |
| 20260507025005 | 8 | 312 | 0.0 | 0.0 | 0.00 | 0.00 | 0.00 | 69 | 1012.9 |
| 20260507024005 | 9 | 312 | 0.0 | 0.0 | 0.00 | 0.00 | 0.00 | 68 | 1012.9 |
| 20260507023505 | 9 | 312 | 0.0 | 0.0 | 0.00 | 0.00 | 0.00 | 67 | 1012.9 |
| 20260507023005 | 9 | 312 | 0.0 | 0.0 | 0.00 | 0.00 | 0.00 | 68 | 1012.9 |
| 20260507022504 | 9 | 312 | 0.0 | 0.0 | 0.00 | 0.00 | 0.00 | 68 | 1012.9 |
| 20260507022005 | 9 | 312 | 0.0 | 0.0 | 0.00 | 0.00 | 0.00 | 69 | 1012.9 |
| 20260507021504 | 10 | 312 | 0.0 | 0.0 | 0.00 | 0.00 | 0.00 | 68 | 1012.9 |
| 20260507021005 | 10 | 312 | 0.0 | 0.0 | 0.00 | 0.00 | 0.00 | 68 | 1012.9 |
| 20260507020505 | 10 | 312 | 0.0 | 0.0 | 0.00 | 0.00 | 0.00 | 67 | 1012.9 |
| 20260507020005 | 10 | 312 | 0.0 | 0.0 | 0.00 | 0.00 | 0.00 | 66 | 1012.8 |
| 20260507015005 | 10 | 312 | 0.0 | 0.0 | 0.00 | 0.00 | 0.00 | 65 | 1012.8 |
| 20260507014004 | 10 | 312 | 0.0 | 0.0 | 0.00 | 0.00 | 0.00 | 64 | 1012.6 |
| 20260507013505 | 10 | 312 | 0.0 | 0.0 | 0.00 | 0.00 | 0.00 | 63 | 1012.6 |
| 20260507013004 | 10 | 312 | 0.0 | 0.0 | 0.00 | 0.03 | 0.00 | 61 | 1012.5 |
| 20260507012505 | 10 | 312 | 0.0 | 0.0 | 0.00 | 0.03 | 0.00 | 60 | 1012.5 |
| 20260507011505 | 10 | 312 | 0.0 | 0.0 | 0.00 | 0.03 | 0.00 | 57 | 1012.5 |
| 20260507011005 | 10 | 312 | 0.0 | 0.0 | 0.00 | 0.03 | 0.00 | 55 | 1012.4 |
| 20260507010505 | 11 | 312 | 0.0 | 0.0 | 0.00 | 0.03 | 0.00 | 53 | 1012.4 |
| 20260507010005 | 11 | 312 | 0.0 | 0.0 | 0.00 | 0.03 | 0.00 | 52 | 1012.3 |
| 20260507005504 | 11 | 312 | 0.0 | 0.0 | 0.00 | 0.03 | 0.00 | 51 | 1012.3 |
| 20260507005005 | 11 | 312 | 0.0 | 0.0 | 0.00 | 0.03 | 0.00 | 51 | 1012.3 |
| 20260507004005 | 11 | 312 | 0.0 | 0.0 | 0.00 | 0.03 | 0.00 | 49 | 1012.1 |
| 20260507003504 | 11 | 312 | 0.0 | 0.0 | 0.00 | 0.03 | 0.00 | 49 | 1012.1 |
| 20260507003005 | 11 | 312 | 0.0 | 0.0 | 0.00 | 0.03 | 0.00 | 48 | 1012.2 |
| 20260507002505 | 11 | 312 | 0.0 | 0.0 | 0.00 | 0.03 | 0.00 | 47 | 1012.1 |
| 20260507002005 | 11 | 312 | 0.0 | 0.0 | 0.00 | 0.03 | 0.00 | 48 | 1012.0 |
| 20260507001504 | 11 | 312 | 0.0 | 4.8 | 0.00 | 0.03 | 0.00 | 47 | 1012.0 |
| 20260507001005 | 11 | 313 | 0.0 | 3.2 | 0.00 | 0.03 | 0.00 | 46 | 1012.1 |
| 20260507000505 | 11 | 313 | 1.6 | 3.2 | 0.00 | 0.05 | 0.00 | 46 | 1012.1 |
| 20260507000005 | 11 | 313 | 3.2 | 8.0 | 0.00 | 0.05 | 0.00 | 45 | 1012.2 |
| 20260506235504 | 11 | 291 | 3.2 | 9.7 | 0.00 | 0.05 | 0.00 | 45 | 1012.1 |
| 20260506234505 | 11 | 284 | 3.2 | 8.0 | 0.00 | 0.05 | 0.00 | 45 | 1012.2 |
| 20260506234005 | 11 | 294 | 3.2 | 9.7 | 0.00 | 0.05 | 0.00 | 43 | 1012.1 |
| 20260506233504 | 11 | 301 | 1.6 | 8.0 | 0.00 | 0.05 | 0.00 | 43 | 1012.1 |
| 20260506233005 | 12 | 307 | 8.0 | 14.5 | 0.00 | 0.05 | 0.00 | 42 | 1012.3 |
| 20260506232504 | 12 | 285 | 6.4 | 11.3 | 0.00 | 0.05 | 0.00 | 43 | 1012.3 |
| 20260506232004 | 12 | 283 | 11.3 | 19.3 | 0.00 | 0.05 | 0.00 | 42 | 1012.3 |
| 20260506230505 | 12 | 282 | 11.3 | 19.3 | 0.00 | 0.05 | 0.00 | 40 | 1012.2 |
| 20260506230004 | 12 | 296 | 9.7 | 16.1 | 0.00 | 0.05 | 0.00 | 42 | 1012.2 |
| 20260506225505 | 12 | 290 | 9.7 | 16.1 | 0.00 | 0.05 | 0.00 | 41 | 1012.3 |
| 20260506225004 | 12 | 316 | 8.0 | 14.5 | 0.00 | 0.05 | 0.00 | 41 | 1012.3 |
| 20260506224504 | 12 | 287 | 9.7 | 14.5 | 0.00 | 0.05 | 0.00 | 40 | 1012.2 |
| 20260506224004 | 12 | 305 | 9.7 | 16.1 | 0.00 | 0.05 | 0.00 | 40 | 1012.2 |
| 20260506223506 | 12 | 298 | 9.7 | 20.9 | 0.00 | 0.05 | 0.00 | 41 | 1012.1 |
| 20260506223004 | 12 | 274 | 6.4 | 11.3 | 0.00 | 0.05 | 0.00 | 42 | 1012.0 |
| 20260506222004 | 12 | 287 | 9.7 | 16.1 | 0.00 | 0.05 | 0.00 | 43 | 1012.0 |
| 20260506221505 | 12 | 292 | 11.3 | 20.9 | 0.00 | 0.05 | 0.00 | 42 | 1012.0 |
| 20260506221005 | 12 | 275 | 11.3 | 19.3 | 0.00 | 0.05 | 0.00 | 43 | 1011.9 |
| 20260506220504 | 12 | 298 | 8.0 | 19.3 | 0.00 | 0.05 | 0.00 | 43 | 1012.0 |
| 20260506215504 | 12 | 277 | 11.3 | 25.7 | 0.00 | 0.05 | 0.00 | 43 | 1012.0 |
| 20260506215005 | 13 | 296 | 11.3 | 20.9 | 0.00 | 0.05 | 0.00 | 42 | 1012.0 |
| 20260506214504 | 13 | 291 | 9.7 | 20.9 | 0.00 | 0.05 | 0.00 | 43 | 1011.9 |
| 20260506212504 | 13 | 303 | 12.9 | 20.9 | 0.00 | 0.10 | 0.00 | 41 | 1011.9 |
| 20260506212004 | 13 | 279 | 8.0 | 19.3 | 0.00 | 0.10 | 0.00 | 44 | 1012.0 |
| 20260506211504 | 12 | 299 | 6.4 | 12.9 | 0.00 | 0.10 | 0.00 | 43 | 1012.0 |
| 20260506211005 | 13 | 296 | 8.0 | 16.1 | 0.00 | 0.13 | 0.00 | 42 | 1012.1 |
| 20260506210504 | 13 | 282 | 11.3 | 22.5 | 0.00 | 0.13 | 0.00 | 42 | 1012.3 |
| 20260506210004 | 13 | 245 | 9.7 | 20.9 | 0.00 | 0.13 | 0.00 | 45 | 1012.2 |
| 20260506205504 | 12 | 267 | 8.0 | 14.5 | 0.00 | 0.13 | 0.00 | 44 | 1012.1 |
| 20260506205005 | 12 | 276 | 11.3 | 19.3 | 0.00 | 0.13 | 0.00 | 42 | 1012.1 |
| 20260506204505 | 12 | 267 | 9.7 | 16.1 | 0.00 | 0.13 | 0.00 | 43 | 1012.1 |
| 20260506203504 | 13 | 274 | 11.3 | 19.3 | 0.00 | 0.13 | 0.00 | 43 | 1012.0 |
| 20260506203005 | 13 | 247 | 9.7 | 22.5 | 0.00 | 0.13 | 0.00 | 42 | 1012.0 |
| 20260506202005 | 12 | 267 | 11.3 | 22.5 | 0.00 | 0.13 | 0.00 | 42 | 1012.1 |
| 20260506201504 | 12 | 252 | 9.7 | 19.3 | 0.00 | 0.13 | 0.00 | 43 | 1012.1 |
| 20260506201004 | 12 | 275 | 11.3 | 22.5 | 0.00 | 0.13 | 0.00 | 41 | 1012.1 |
| 20260506200504 | 13 | 262 | 9.7 | 14.5 | 0.00 | 0.13 | 0.00 | 44 | 1012.2 |
| 20260506200004 | 12 | 301 | 6.4 | 20.9 | 0.00 | 0.13 | 0.00 | 43 | 1012.2 |
| 20260506195504 | 12 | 306 | 9.7 | 16.1 | 0.00 | 0.13 | 0.00 | 44 | 1012.3 |
| 20260506195004 | 12 | 226 | 8.0 | 14.5 | 0.00 | 0.13 | 0.00 | 45 | 1012.3 |
| 20260506194504 | 12 | 237 | 6.4 | 19.3 | 0.00 | 0.13 | 0.00 | 42 | 1012.3 |
| 20260506194004 | 12 | 260 | 9.7 | 19.3 | 0.00 | 0.13 | 0.00 | 42 | 1012.4 |
| 20260506193504 | 12 | 288 | 4.8 | 12.9 | 0.00 | 0.13 | 0.00 | 43 | 1012.4 |
| 20260506193004 | 12 | 240 | 8.0 | 16.1 | 0.00 | 0.13 | 0.00 | 43 | 1012.4 |
| 20260506191504 | 12 | 270 | 11.3 | 19.3 | 0.00 | 0.13 | 0.00 | 42 | 1012.4 |
| 20260506191005 | 12 | 219 | 9.7 | 22.5 | 0.00 | 0.13 | 0.00 | 42 | 1012.4 |
| 20260506190504 | 12 | 290 | 4.8 | 19.3 | 0.00 | 0.13 | 0.00 | 43 | 1012.5 |
| 20260506190004 | 12 | 279 | 12.9 | 20.9 | 0.00 | 0.13 | 0.00 | 43 | 1012.5 |
| 20260506185504 | 12 | 271 | 3.2 | 16.1 | 0.00 | 0.13 | 0.00 | 43 | 1012.5 |
| 20260506185004 | 12 | 269 | 11.3 | 25.7 | 0.00 | 0.13 | 0.00 | 43 | 1012.6 |
| 20260506184504 | 12 | 283 | 8.0 | 24.1 | 0.00 | 0.13 | 0.00 | 44 | 1012.5 |
| 20260506184004 | 11 | 271 | 9.7 | 19.3 | 0.00 | 0.13 | 0.00 | 42 | 1012.6 |
| 20260506183504 | 11 | 214 | 6.4 | 20.9 | 0.00 | 0.13 | 0.00 | 42 | 1012.7 |
| 20260506182504 | 11 | 275 | 12.9 | 20.9 | 0.00 | 0.13 | 0.00 | 44 | 1012.9 |
| 20260506182004 | 11 | 270 | 11.3 | 19.3 | 0.00 | 0.13 | 0.00 | 43 | 1012.8 |
| 20260506181004 | 11 | 332 | 8.0 | 14.5 | 0.00 | 0.13 | 0.00 | 43 | 1012.7 |
| 20260506180504 | 11 | 294 | 4.8 | 9.7 | 0.00 | 0.13 | 0.00 | 41 | 1012.7 |
| 20260506180005 | 11 | 320 | 6.4 | 14.5 | 0.00 | 0.13 | 0.00 | 43 | 1012.7 |
| 20260506175503 | 11 | 263 | 4.8 | 19.3 | 0.00 | 0.13 | 0.00 | 43 | 1012.6 |
| 20260506175004 | 11 | 260 | 6.4 | 14.5 | 0.00 | 0.13 | 0.00 | 44 | 1012.5 |
| 20260506174503 | 11 | 275 | 9.7 | 14.5 | 0.00 | 0.13 | 0.00 | 42 | 1012.5 |
| 20260506174004 | 11 | 272 | 8.0 | 12.9 | 0.00 | 0.13 | 0.00 | 41 | 1012.5 |
| 20260506173504 | 11 | 295 | 6.4 | 12.9 | 0.00 | 0.13 | 0.00 | 42 | 1012.5 |
| 20260506173004 | 11 | 291 | 9.7 | 16.1 | 0.00 | 0.13 | 0.00 | 44 | 1012.6 |
| 20260506172503 | 11 | 280 | 9.7 | 19.3 | 0.00 | 0.13 | 0.00 | 42 | 1012.5 |
| 20260506172004 | 11 | 294 | 11.3 | 22.5 | 0.00 | 0.13 | 0.00 | 42 | 1012.5 |
| 20260506171504 | 11 | 285 | 6.4 | 19.3 | 0.00 | 0.13 | 0.00 | 44 | 1012.5 |
| 20260506171004 | 11 | 317 | 14.5 | 20.9 | 0.00 | 0.13 | 0.00 | 41 | 1012.5 |
| 20260506170504 | 11 | 291 | 11.3 | 20.9 | 0.00 | 0.13 | 0.00 | 42 | 1012.5 |
| 20260506170004 | 11 | 325 | 4.8 | 12.9 | 0.00 | 0.13 | 0.00 | 44 | 1012.5 |
| 20260506165504 | 11 | 326 | 4.8 | 14.5 | 0.00 | 0.13 | 0.00 | 42 | 1012.6 |
| 20260506164503 | 11 | 292 | 11.3 | 19.3 | 0.00 | 0.13 | 0.00 | 42 | 1012.7 |
| 20260506164004 | 11 | 329 | 6.4 | 12.9 | 0.00 | 0.13 | 0.00 | 42 | 1012.6 |
| 20260506163504 | 11 | 303 | 4.8 | 16.1 | 0.00 | 0.13 | 0.00 | 42 | 1012.8 |
| 20260506162507 | 11 | 285 | 6.4 | 20.9 | 0.00 | 0.13 | 0.00 | 43 | 1012.7 |
| 20260506162006 | 11 | 283 | 4.8 | 20.9 | 0.00 | 0.13 | 0.00 | 44 | 1012.7 |
| 20260506161506 | 11 | 308 | 3.2 | 14.5 | 0.00 | 0.13 | 0.00 | 43 | 1012.7 |
| 20260506161006 | 11 | 312 | 4.8 | 19.3 | 0.00 | 0.13 | 0.00 | 43 | 1012.9 |
| 20260506160006 | 11 | 300 | 4.8 | 19.3 | 0.00 | 0.13 | 0.00 | 43 | 1012.9 |
| 20260506155007 | 11 | 340 | 11.3 | 19.3 | 0.00 | 0.13 | 0.00 | 42 | 1012.9 |
| 20260506154507 | 11 | 356 | 4.8 | 16.1 | 0.00 | 0.13 | 0.00 | 43 | 1012.8 |
| 20260506154007 | 11 | 297 | 14.5 | 19.3 | 0.00 | 0.13 | 0.00 | 42 | 1012.7 |
| 20260506153506 | 11 | 290 | 8.0 | 19.3 | 0.00 | 0.13 | 0.00 | 44 | 1012.6 |
| 20260506153006 | 11 | 305 | 11.3 | 22.5 | 0.00 | 0.13 | 0.00 | 42 | 1012.5 |
| 20260506152506 | 11 | 290 | 8.0 | 16.1 | 0.00 | 0.13 | 0.00 | 44 | 1012.6 |
| 20260506152006 | 11 | 345 | 9.7 | 16.1 | 0.00 | 0.13 | 0.00 | 45 | 1012.5 |
| 20260506151006 | 11 | 308 | 11.3 | 19.3 | 0.00 | 0.13 | 0.00 | 44 | 1012.6 |
| 20260506150506 | 11 | 336 | 8.0 | 16.1 | 0.00 | 0.13 | 0.00 | 44 | 1012.5 |
| 20260506150006 | 11 | 295 | 9.7 | 16.1 | 0.00 | 0.13 | 0.00 | 44 | 1012.5 |
| 20260506145506 | 11 | 346 | 8.0 | 16.1 | 0.00 | 0.13 | 0.00 | 46 | 1012.5 |
| 20260506144506 | 11 | 313 | 9.7 | 22.5 | 0.00 | 0.13 | 0.00 | 46 | 1012.2 |
| 20260506143506 | 10 | 260 | 11.3 | 19.3 | 0.00 | 0.13 | 0.00 | 44 | 1012.0 |
| 20260506143006 | 10 | 306 | 8.0 | 16.1 | 0.00 | 0.13 | 0.00 | 47 | 1012.1 |
| 20260506142506 | 10 | 319 | 9.7 | 19.3 | 0.00 | 0.13 | 0.00 | 45 | 1012.0 |
| 20260506142007 | 11 | 303 | 8.0 | 14.5 | 0.00 | 0.13 | 0.00 | 46 | 1012.0 |
| 20260506141006 | 10 | 313 | 6.4 | 14.5 | 0.00 | 0.13 | 0.00 | 47 | 1011.9 |
| 20260506140506 | 10 | 19 | 9.7 | 19.3 | 0.00 | 0.13 | 0.00 | 47 | 1011.9 |
| 20260506140006 | 10 | 337 | 8.0 | 19.3 | 0.00 | 0.13 | 0.00 | 46 | 1011.9 |
| 20260506135505 | 10 | 327 | 9.7 | 19.3 | 0.00 | 0.13 | 0.00 | 46 | 1011.9 |
| 20260506135006 | 10 | 349 | 6.4 | 14.5 | 0.00 | 0.13 | 0.00 | 49 | 1012.0 |
| 20260506134006 | 10 | 327 | 3.2 | 14.5 | 0.00 | 0.13 | 0.00 | 51 | 1011.9 |
| 20260506133506 | 10 | 348 | 11.3 | 20.9 | 0.00 | 0.13 | 0.00 | 52 | 1011.8 |
| 20260506133007 | 9 | 332 | 6.4 | 14.5 | 0.00 | 0.13 | 0.00 | 53 | 1011.6 |
| 20260506132505 | 9 | 314 | 9.7 | 14.5 | 0.00 | 0.13 | 0.00 | 53 | 1011.7 |
| 20260506132006 | 9 | 323 | 6.4 | 19.3 | 0.00 | 0.13 | 0.00 | 53 | 1011.4 |
| 20260506131506 | 9 | 297 | 3.2 | 14.5 | 0.00 | 0.13 | 0.00 | 55 | 1011.4 |
| 20260506131006 | 8 | 6 | 6.4 | 14.5 | 0.00 | 0.13 | 0.00 | 55 | 1011.3 |
| 20260506130506 | 8 | 298 | 4.8 | 11.3 | 0.00 | 0.13 | 0.00 | 57 | 1011.3 |
| 20260506125006 | 8 | 6 | 8.0 | 19.3 | 0.00 | 0.13 | 0.00 | 57 | 1011.1 |
| 20260506124507 | 8 | 321 | 9.7 | 20.9 | 0.00 | 0.13 | 0.00 | 59 | 1011.2 |
| 20260506124006 | 8 | 307 | 8.0 | 12.9 | 0.00 | 0.13 | 0.00 | 60 | 1011.2 |
| 20260506123506 | 8 | 12 | 9.7 | 20.9 | 0.00 | 0.13 | 0.00 | 60 | 1011.0 |
| 20260506123006 | 7 | 334 | 8.0 | 14.5 | 0.00 | 0.13 | 0.00 | 62 | 1011.2 |
| 20260506122506 | 7 | 306 | 8.0 | 19.3 | 0.00 | 0.13 | 0.00 | 63 | 1011.1 |
| 20260506122006 | 7 | 302 | 8.0 | 16.1 | 0.00 | 0.13 | 0.00 | 64 | 1011.1 |
| 20260506121506 | 7 | 318 | 4.8 | 14.5 | 0.00 | 0.13 | 0.00 | 67 | 1010.9 |
| 20260506121006 | 7 | 293 | 8.0 | 12.9 | 0.00 | 0.13 | 0.00 | 68 | 1010.9 |
| 20260506120505 | 7 | 293 | 1.6 | 12.9 | 0.00 | 0.13 | 0.00 | 69 | 1010.8 |
| 20260506120005 | 7 | 306 | 4.8 | 14.5 | 0.00 | 0.13 | 0.00 | 69 | 1010.8 |
| 20260506115006 | 6 | 314 | 3.2 | 8.0 | 0.00 | 0.13 | 0.00 | 72 | 1010.8 |
| 20260506114506 | 6 | 311 | 3.2 | 9.7 | 0.00 | 0.13 | 0.00 | 73 | 1010.7 |
| 20260506114005 | 6 | 298 | 6.4 | 9.7 | 0.00 | 0.13 | 0.00 | 74 | 1010.5 |
| 20260506113506 | 6 | 304 | 1.6 | 4.8 | 0.00 | 0.13 | 0.00 | 74 | 1010.3 |
| 20260506113006 | 6 | 306 | 1.6 | 8.0 | 0.00 | 0.13 | 0.00 | 74 | 1010.3 |
| 20260506112506 | 6 | 315 | 0.0 | 0.0 | 0.00 | 0.13 | 0.00 | 74 | 1010.2 |
| 20260506112006 | 6 | 316 | 0.0 | 0.0 | 0.00 | 0.13 | 0.00 | 74 | 1010.2 |
| 20260506111505 | 6 | 316 | 0.0 | 4.8 | 0.00 | 0.13 | 0.00 | 74 | 1010.0 |
| 20260506111006 | 6 | 311 | 1.6 | 4.8 | 0.00 | 0.13 | 0.00 | 74 | 1009.9 |
| 20260506110505 | 6 | 334 | 1.6 | 4.8 | 0.00 | 0.13 | 0.00 | 74 | 1009.8 |
| 20260506110006 | 6 | 330 | 3.2 | 8.0 | 0.00 | 0.13 | 0.00 | 73 | 1009.6 |
| 20260506105506 | 6 | 355 | 3.2 | 8.0 | 0.00 | 0.13 | 0.00 | 73 | 1009.5 |
| 20260506105005 | 6 | 310 | 0.0 | 8.0 | 0.00 | 0.13 | 0.00 | 74 | 1009.6 |
| 20260506104006 | 6 | 292 | 3.2 | 12.9 | 0.00 | 0.13 | 0.00 | 74 | 1009.3 |
| 20260506103506 | 7 | 311 | 3.2 | 8.0 | 0.00 | 0.13 | 0.00 | 74 | 1009.5 |
| 20260506103006 | 7 | 311 | 4.8 | 9.7 | 0.00 | 0.13 | 0.00 | 74 | 1009.2 |
| 20260506102506 | 7 | 295 | 4.8 | 9.7 | 0.00 | 0.13 | 0.00 | 74 | 1009.2 |
| 20260506102006 | 7 | 301 | 8.0 | 12.9 | 0.00 | 0.13 | 0.00 | 75 | 1009.3 |
| 20260506100506 | 7 | 309 | 1.6 | 11.3 | 0.00 | 0.13 | 0.00 | 78 | 1009.1 |
| 20260506100005 | 7 | 316 | 3.2 | 11.3 | 0.00 | 0.13 | 0.00 | 78 | 1009.1 |
| 20260506095505 | 7 | 311 | 4.8 | 9.7 | 0.00 | 0.13 | 0.00 | 80 | 1009.1 |
| 20260506095006 | 7 | 292 | 3.2 | 8.0 | 0.00 | 0.13 | 0.00 | 81 | 1009.1 |
| 20260506094506 | 7 | 302 | 1.6 | 4.8 | 0.00 | 0.13 | 0.00 | 82 | 1009.1 |
| 20260506094005 | 7 | 302 | 3.2 | 8.0 | 0.00 | 0.13 | 0.00 | 83 | 1009.1 |
| 20260506093506 | 7 | 305 | 0.0 | 0.0 | 0.00 | 0.13 | 0.00 | 84 | 1009.0 |
| 20260506092505 | 7 | 302 | 3.2 | 8.0 | 0.00 | 0.13 | 0.00 | 85 | 1009.0 |
| 20260506092006 | 7 | 290 | 1.6 | 4.8 | 0.00 | 0.13 | 0.00 | 86 | 1009.0 |
| 20260506091506 | 7 | 290 | 1.6 | 4.8 | 0.00 | 0.13 | 0.00 | 86 | 1009.1 |
| 20260506091005 | 7 | 290 | 0.0 | 0.0 | 0.00 | 0.13 | 0.00 | 87 | 1008.8 |
| 20260506085505 | 7 | 290 | 0.0 | 0.0 | 0.00 | 0.13 | 0.00 | 87 | 1008.6 |
| 20260506085006 | 7 | 290 | 0.0 | 0.0 | 0.00 | 0.13 | 0.00 | 87 | 1008.4 |
| 20260506084505 | 7 | 290 | 0.0 | 0.0 | 0.00 | 0.13 | 0.00 | 86 | 1008.5 |
| 20260506084005 | 7 | 290 | 0.0 | 0.0 | 0.00 | 0.13 | 0.00 | 86 | 1008.5 |
| 20260506083005 | 7 | 290 | 0.0 | 0.0 | 0.00 | 0.13 | 0.00 | 87 | 1008.7 |
| 20260506082505 | 7 | 290 | 0.0 | 0.0 | 0.00 | 0.13 | 0.00 | 87 | 1008.5 |
| 20260506082005 | 7 | 290 | 0.0 | 0.0 | 0.00 | 0.13 | 0.00 | 87 | 1008.4 |
| 20260506081505 | 7 | 290 | 0.0 | 0.0 | 0.00 | 0.13 | 0.00 | 87 | 1008.5 |
| 20260506081006 | 7 | 290 | 0.0 | 0.0 | 0.00 | 0.13 | 0.00 | 87 | 1008.4 |
| 20260506080505 | 7 | 290 | 0.0 | 0.0 | 0.00 | 0.13 | 0.00 | 87 | 1008.3 |
| 20260506073505 | 7 | 281 | 0.0 | 0.0 | 0.00 | 0.13 | 0.00 | 88 | 1008.3 |
| 20260506073005 | 7 | 281 | 0.0 | 0.0 | 0.00 | 0.13 | 0.00 | 88 | 1008.5 |
| 20260506072505 | 7 | 281 | 0.0 | 1.6 | 0.00 | 0.13 | 0.00 | 88 | 1008.5 |
| 20260506072005 | 7 | 281 | 0.0 | 0.0 | 0.00 | 0.13 | 0.00 | 88 | 1008.1 |
| 20260506071505 | 7 | 281 | 1.6 | 4.8 | 0.00 | 0.13 | 0.00 | 88 | 1008.2 |
| 20260506071005 | 6 | 280 | 0.0 | 0.0 | 0.00 | 0.13 | 0.00 | 88 | 1008.3 |
| 20260506062505 | 6 | 280 | 0.0 | 0.0 | 0.00 | 0.15 | 0.00 | 88 | 1008.4 |
| 20260506062005 | 6 | 280 | 0.0 | 0.0 | 0.00 | 0.15 | 0.00 | 88 | 1008.5 |
| 20260506061505 | 6 | 280 | 0.0 | 0.0 | 0.00 | 0.18 | 0.00 | 88 | 1008.7 |